CW9927 Weather Reports


time (UTC)temp
C
wind
direction
speed
KPH
gust
KPH
rain 1hr
cm
rain 24hr
cm
rain mn
cm
humidity
%
barometer
mb
20260901030117 15 0.0 0.0 0.00 0.00 0.00 80 1014.0
20260901025158 15 0.0 0.0 0.00 0.00 0.00 80 1013.9
20260901024117 16 0.0 0.0 0.00 0.00 0.00 79 1013.9
20260901023118 16 0.0 0.0 0.00 0.00 0.00 78 1013.8
20260901022117 16 0.0 0.0 0.00 0.00 0.00 77 1013.6
20260901021117 17 0.0 0.0 0.00 0.00 0.00 75 1013.6
20260901020157 17 0.0 0.0 0.00 0.00 0.00 74 1013.6
20260901015117 17 0.0 0.0 0.00 0.00 0.00 74 1013.7
20260901014117 17 0.0 0.0 0.00 0.00 0.00 73 1013.6
20260901013117 18 0.0 0.0 0.00 0.00 0.00 72 1013.5
20260901012117 18 0.0 0.0 0.00 0.00 0.00 71 1013.5
20260901011158 18 225 6.4 14.5 0.00 0.00 0.00 70 1013.5
20260901010239 19 270 4.8 16.1 0.00 0.00 0.00 68 1013.3
20260901005317 20 270 11.3 20.9 0.00 0.00 0.00 67 1013.3
20260901004316 20 0.0 0.0 0.00 0.00 0.00 66 1013.2
20260901003316 20 0.0 0.0 0.00 0.00 0.00 65 1013.1
20260901002317 20 0.0 0.0 0.00 0.00 0.00 64 1013.2
20260901001316 20 0.0 0.0 0.00 0.00 0.00 64 1013.1
20260901000337 21 248 4.8 9.7 0.00 0.00 0.00 63 1013.2
20260831235316 21 0.0 0.0 0.00 0.00 0.00 63 1013.1
20260831234316 22 0.0 0.0 0.00 0.00 0.00 61 1013.1
20260831233316 22 0.0 1.6 0.00 0.00 0.00 62 1013.1
20260831232316 21 0.0 0.0 0.00 0.00 0.00 62 1013.2
20260831231316 21 0.0 1.6 0.00 0.00 0.00 63 1013.3
20260831230316 22 0.0 0.0 0.00 0.00 0.00 60 1013.4
20260831225316 22 0.0 0.0 0.00 0.00 0.00 60 1013.5
20260831224337 22 0.0 3.2 0.00 0.00 0.00 59 1013.5
20260831223316 22 0.0 3.2 0.00 0.00 0.00 59 1013.7
20260831222316 22 0.0 0.0 0.00 0.00 0.00 58 1013.7
20260831221316 22 0.0 0.0 0.00 0.00 0.00 58 1013.8
20260831220316 22 0.0 0.0 0.00 0.00 0.00 57 1013.9
20260831215316 22 0.0 0.0 0.00 0.00 0.00 57 1014.0
20260831214316 22 0.0 0.0 0.00 0.00 0.00 56 1014.1
20260831213316 22 0.0 0.0 0.00 0.00 0.00 55 1014.2
20260831212316 22 0.0 0.0 0.00 0.00 0.00 56 1014.3
20260831211317 22 0.0 0.0 0.00 0.00 0.00 57 1014.4
20260831210316 21 0.0 0.0 0.00 0.00 0.00 59 1014.4
20260831205316 21 0.0 0.0 0.00 0.00 0.00 58 1014.5
20260831204317 21 0.0 0.0 0.00 0.00 0.00 60 1014.6
20260831203336 20 0.0 0.0 0.00 0.00 0.00 62 1014.7
20260831202316 20 0.0 0.0 0.00 0.00 0.00 63 1014.8
20260831201316 20 0.0 0.0 0.00 0.00 0.00 62 1014.9
20260831200337 20 0.0 0.0 0.00 0.00 0.00 64 1015.1
20260831195317 20 0.0 0.0 0.00 0.00 0.00 65 1015.2
20260831194318 19 0.0 0.0 0.00 0.00 0.00 66 1015.3
20260831193316 19 0.0 0.0 0.00 0.00 0.00 66 1015.4
20260831192316 19 0.0 0.0 0.00 0.00 0.00 67 1015.5
20260831191316 18 0.0 0.0 0.00 0.00 0.00 69 1015.7
20260831190345 17 0.0 0.0 0.00 0.00 0.00 71 1015.7
20260831190221 17 0.0 0.0 0.00 0.00 0.00 71 1015.8
20260831185337 17 0.0 0.0 0.00 0.00 0.00 72 1015.9
20260831184318 17 0.0 0.0 0.00 0.00 0.00 73 1015.8
20260831183337 17 0.0 0.0 0.00 0.00 0.00 75 1015.9
20260831182317 16 0.0 0.0 0.00 0.00 0.00 76 1016.0
20260831181318 16 0.0 0.0 0.00 0.00 0.00 77 1016.1
20260831180317 16 0.0 0.0 0.00 0.00 0.00 78 1016.2
20260831175317 15 0.0 0.0 0.00 0.00 0.00 78 1016.2
20260831174317 15 0.0 0.0 0.00 0.00 0.00 78 1016.2
20260831173358 15 0.0 0.0 0.00 0.00 0.00 78 1016.1
20260831172337 15 0.0 0.0 0.00 0.00 0.00 78 1015.9
20260831171317 15 0.0 0.0 0.00 0.00 0.00 79 1015.9
20260831170317 15 0.0 0.0 0.00 0.00 0.00 80 1015.9
20260831165317 15 0.0 0.0 0.00 0.00 0.00 80 1015.8
20260831164357 15 0.0 0.0 0.00 0.00 0.00 81 1015.7
20260831163317 14 0.0 0.0 0.00 0.00 0.00 81 1015.7
20260831162317 14 0.0 0.0 0.00 0.00 0.00 81 1015.6
20260831161317 14 0.0 0.0 0.00 0.00 0.00 82 1015.7
20260831160317 14 0.0 0.0 0.00 0.00 0.00 82 1015.7
20260831155317 13 0.0 0.0 0.00 0.00 0.00 83 1015.7
20260831154318 13 0.0 0.0 0.00 0.00 0.00 83 1015.6
20260831153337 13 0.0 0.0 0.00 0.00 0.00 84 1015.6
20260831152317 13 0.0 0.0 0.00 0.00 0.00 84 1015.5
20260831151317 13 0.0 0.0 0.00 0.00 0.00 85 1015.5
20260831150317 13 0.0 0.0 0.00 0.00 0.00 86 1015.4
20260831145317 13 0.0 0.0 0.00 0.00 0.00 86 1015.4
20260831144337 13 0.0 0.0 0.00 0.00 0.00 87 1015.3
20260831143358 13 0.0 0.0 0.00 0.00 0.00 87 1015.2
20260831142317 13 0.0 0.0 0.00 0.00 0.00 87 1015.0
20260831141317 13 0.0 0.0 0.00 0.00 0.00 87 1015.0
20260831140337 13 0.0 0.0 0.00 0.00 0.00 88 1014.9
20260831135337 12 0.0 0.0 0.00 0.00 0.00 89 1014.8
20260831134337 12 0.0 0.0 0.00 0.00 0.00 89 1014.6
20260831133317 12 0.0 0.0 0.00 0.00 0.00 89 1014.6
20260831132337 12 0.0 0.0 0.00 0.00 0.00 89 1014.5
20260831131317 12 0.0 0.0 0.00 0.00 0.00 89 1014.5
20260831130358 13 0.0 0.0 0.00 0.00 0.00 88 1014.5
20260831130213 13 0.0 0.0 0.00 0.00 0.00 88 1014.5
20260831125137 13 0.0 0.0 0.00 0.00 0.00 88 1014.4
20260831124116 13 0.0 0.0 0.00 0.00 0.00 88 1014.2
20260831123116 13 0.0 0.0 0.00 0.00 0.00 88 1014.1
20260831122116 13 0.0 0.0 0.00 0.00 0.00 88 1014.2
20260831121116 13 0.0 0.0 0.00 0.00 0.00 88 1014.2
20260831120116 13 0.0 0.0 0.00 0.00 0.00 88 1014.2
20260831115119 13 0.0 0.0 0.00 0.00 0.00 88 1014.1
20260831114136 13 0.0 0.0 0.00 0.00 0.00 88 1014.1
20260831113116 13 0.0 0.0 0.00 0.00 0.00 89 1014.0
20260831112116 13 0.0 0.0 0.00 0.00 0.00 89 1013.9
20260831111116 13 0.0 0.0 0.00 0.00 0.00 89 1014.0
20260831110116 13 0.0 0.0 0.00 0.00 0.00 89 1014.0
20260831105138 13 0.0 0.0 0.00 0.00 0.00 89 1014.0
20260831104117 13 0.0 0.0 0.00 0.00 0.00 89 1014.0
20260831103117 13 0.0 0.0 0.00 0.00 0.00 89 1014.0
20260831102137 13 0.0 0.0 0.00 0.00 0.00 89 1014.1
20260831101117 13 0.0 0.0 0.00 0.00 0.00 89 1014.1
20260831100117 13 0.0 0.0 0.00 0.00 0.00 89 1014.2
20260831095137 13 0.0 0.0 0.00 0.00 0.00 89 1014.1
20260831094117 13 0.0 0.0 0.00 0.00 0.00 89 1014.0
20260831093139 13 0.0 0.0 0.00 0.00 0.00 89 1014.0
20260831092117 13 0.0 0.0 0.00 0.00 0.00 89 1013.9
20260831091137 13 0.0 0.0 0.00 0.00 0.00 89 1014.0
20260831090118 13 0.0 0.0 0.00 0.00 0.00 89 1014.0
20260831085137 13 0.0 0.0 0.00 0.00 0.00 89 1014.0
20260831084119 13 0.0 0.0 0.00 0.00 0.00 89 1014.0
20260831083117 13 0.0 0.0 0.00 0.00 0.00 90 1014.0
20260831082117 13 0.0 0.0 0.00 0.00 0.00 90 1014.1
20260831081117 12 0.0 0.0 0.00 0.00 0.00 90 1014.1
20260831080117 12 0.0 0.0 0.00 0.00 0.00 89 1014.0
20260831075117 12 0.0 0.0 0.00 0.00 0.00 89 1014.0
20260831074117 12 0.0 0.0 0.00 0.00 0.00 89 1014.0
20260831073137 12 0.0 0.0 0.00 0.00 0.00 89 1014.0
20260831072117 12 0.0 0.0 0.00 0.00 0.00 89 1014.0
20260831071117 12 0.0 0.0 0.00 0.00 0.00 89 1014.0
20260831065356 12 0.0 0.0 0.00 0.00 0.00 87 1013.9
20260831064317 12 0.0 0.0 0.00 0.00 0.00 87 1013.9
20260831063315 12 0.0 0.0 0.00 0.00 0.00 87 1013.9
20260831062318 12 0.0 0.0 0.00 0.00 0.00 87 1013.9
20260831061316 12 0.0 0.0 0.00 0.00 0.00 87 1014.0
20260831060317 12 0.0 0.0 0.00 0.00 0.00 86 1014.0
20260831055337 12 0.0 0.0 0.00 0.00 0.00 86 1014.1
20260831054317 12 0.0 0.0 0.00 0.00 0.00 86 1014.1
20260831053317 12 0.0 0.0 0.00 0.00 0.00 86 1014.2
20260831052318 12 0.0 0.0 0.00 0.00 0.00 86 1014.2
20260831051337 13 0.0 0.0 0.00 0.00 0.00 86 1014.2
20260831050317 13 0.0 0.0 0.00 0.00 0.00 85 1014.2
20260831045315 13 0.0 0.0 0.00 0.00 0.00 85 1014.3
20260831044338 13 0.0 0.0 0.00 0.00 0.00 85 1014.3
20260831043338 13 0.0 0.0 0.00 0.00 0.00 85 1014.2
20260831042318 13 0.0 0.0 0.00 0.00 0.00 85 1014.2
20260831041317 13 0.0 0.0 0.00 0.00 0.00 84 1014.1
20260831040338 13 0.0 0.0 0.00 0.00 0.00 84 1013.9
20260831035317 13 0.0 0.0 0.00 0.00 0.00 84 1013.9
20260831034319 13 0.0 0.0 0.00 0.00 0.00 84 1013.8
20260831033323 14 0.0 0.0 0.00 0.00 0.00 84 1013.7
20260831032317 14 0.0 0.0 0.00 0.00 0.00 84 1013.6
20260831031317 14 0.0 0.0 0.00 0.00 0.00 83 1013.5